[[{"header":{"parameterUnit":"m.s-1","parameterCategory":1,"la1":30.2991,"la2":30.254,"lo1":-89.0895,"lo2":-89.0444,"dy":0.0017,"dx":0.0017,"nx":28,"ny":28,"refTime":"2025-11-14T03:00:00:Z","depth":0,"parameterNumber":2,"parameterNumberName":"U-component_of_WINDS"},"data":[0,0,0,0,0,0,0,0,0,0,0,0,0,0,0,0,0,0,0,0,0,0,0,0,0,0,0,0,0,0,0,0,0,0,0,0,0,0,0,0,0,0,0,0,0,0,0,0,0,0,0,0,0,0,0,0,0,0,-1.0846,-1.0847,0,-1.0873,-1.0873,-1.0874,-1.0897,-1.0898,-1.0898,-1.0898,-1.0924,-1.0924,-1.0924,0,0,0,0,0,0,0,0,0,0,0,0,0,-1.0815,-1.0815,-1.0846,-1.0847,-1.0847,-1.0873,-1.0873,-1.0874,-1.0897,-1.0898,-1.0898,-1.0898,-1.0924,-1.0924,-1.0925,0,0,0,0,0,0,0,0,0,0,0,0,0,-1.0834,-1.0815,-1.0846,-1.0862,-1.0864,-1.0873,-1.0873,-1.0874,-1.0897,-1.0898,-1.0898,-1.0898,-1.0923,-1.0924,-1.0925,-1.092,0,0,-1.0927,-1.0927,0,0,0,0,0,0,0,0,-1.0832,-1.0835,-1.0859,-1.0861,-1.0863,-1.0882,-1.0872,-1.0889,-1.0897,-1.0884,-1.0898,-1.0899,-1.0909,-1.0911,-1.0915,-1.0921,-1.0922,-1.0927,-1.0927,-1.0927,-1.0927,0,0,0,0,0,0,0,-1.0831,-1.0834,-1.0857,-1.086,-1.0862,-1.0867,-1.087,-1.0875,-1.0894,-1.0885,-1.0887,-1.089,-1.091,-1.0915,-1.0916,-1.0923,-1.0927,-1.0927,-1.0927,-1.0928,-1.0927,-1.0926,0,0,0,0,0,0,-1.0828,-1.0832,-1.0856,-1.0858,-1.0848,-1.0867,-1.0871,-1.0876,-1.0894,-1.0897,-1.089,-1.0891,-1.0913,-1.0915,-1.0917,-1.0913,-1.0927,-1.0928,-1.0928,-1.0927,-1.0927,-1.0926,0,0,0,0,0,0,-1.0827,-1.083,-1.0855,-1.0846,-1.0849,-1.0868,-1.0872,-1.0876,-1.088,-1.0897,-1.0901,-1.0891,-1.0914,-1.0916,-1.0919,-1.0914,-1.0928,-1.0929,-1.0928,-1.0927,-1.0927,-1.0905,0,0,0,0,0,0,-1.0826,-1.0829,-1.0828,-1.0845,-1.085,-1.0857,-1.0872,-1.0876,-1.0881,-1.0883,-1.0899,-1.0902,-1.0914,-1.0918,-1.092,-1.0916,-1.0929,-1.0928,-1.0927,-1.0927,-1.0907,-1.0904,-1.0902,0,0,0,0,0,-1.0825,-1.082,-1.0827,-1.083,-1.0848,-1.0857,-1.0859,-1.0874,-1.0881,-1.0879,-1.0891,-1.0902,-1.0915,-1.0918,-1.0921,-1.0916,-1.0929,-1.0928,-1.0927,-1.0908,-1.0905,-1.0902,0,0,0,0,0,0,-1.08,-1.0823,-1.0831,-1.0832,-1.0842,-1.0861,-1.0859,-1.087,-1.0878,-1.0879,-1.0897,-1.09,-1.0901,-1.0909,-1.0913,-1.0913,-1.0923,-1.0923,-1.0908,-1.0905,-1.0903,-1.0901,-1.093,0,0,0,0,0,-1.0795,-1.0801,-1.082,-1.0819,-1.0824,-1.0841,-1.0845,-1.0855,-1.0866,-1.087,-1.0882,-1.0892,-1.0899,-1.0902,-1.0909,-1.0908,-1.0912,-1.0906,-1.0904,-1.0902,-1.0901,-1.0902,-1.0899,-1.0923,-1.0923,-1.0923,0,0,-1.0784,-1.0797,-1.0799,-1.0814,-1.0823,-1.0828,-1.0844,-1.0848,-1.0852,-1.0871,-1.0875,-1.0884,-1.0896,-1.0897,-1.0898,-1.0904,-1.0895,-1.0901,-1.0899,-1.0899,-1.09,-1.0898,-1.0896,-1.0923,-1.0923,-1.0923,0,0,-1.0767,-1.0778,-1.0778,-1.0788,-1.0802,-1.0813,-1.0813,-1.083,-1.0837,-1.0842,-1.0856,-1.0861,-1.0871,-1.088,-1.0885,-1.0873,-1.0883,-1.0875,-1.0862,-1.0863,-1.0861,-1.0859,-1.0855,-1.0853,-1.0874,-1.0874,-1.0874,0,-1.0752,-1.0761,-1.0777,-1.0781,-1.0787,-1.0806,-1.0806,-1.0814,-1.083,-1.0833,-1.0839,-1.0854,-1.0863,-1.0867,-1.0864,-1.0868,-1.0869,-1.0873,-1.086,-1.0858,-1.0857,-1.0853,-1.0851,-1.0873,-1.0873,-1.0873,-1.0873,0,-1.0741,-1.0747,-1.0746,-1.0761,-1.0767,-1.0769,-1.0786,-1.079,-1.08,-1.0811,-1.0816,-1.0828,-1.0838,-1.084,-1.0849,-1.0845,-1.0848,-1.0857,-1.0867,-1.0853,-1.085,-1.0849,-1.0871,-1.0871,-1.0872,-1.0872,0,0,-1.0708,-1.0734,-1.0733,-1.0741,-1.0758,-1.0763,-1.0766,-1.0777,-1.078,-1.079,-1.0793,-1.0802,-1.0811,-1.0817,-1.0828,-1.0828,-1.0818,-1.0837,-1.0838,-1.0833,-1.0814,-1.0807,-1.0805,-1.0825,-1.0825,-1.0825,-1.0813,0,-1.0694,-1.0702,-1.0717,-1.072,-1.0725,-1.0743,-1.0746,-1.0757,-1.0767,-1.0774,-1.0785,-1.0791,-1.0802,-1.0806,-1.0807,-1.0819,-1.0814,-1.082,-1.0828,-1.0828,-1.0824,-1.0803,-1.0796,-1.0784,-1.0812,-1.0812,-1.0811,0,-1.0678,-1.0688,-1.0692,-1.071,-1.0713,-1.0715,-1.0726,-1.0732,-1.0745,-1.0752,-1.076,-1.0772,-1.0777,-1.0787,-1.0793,-1.0796,-1.0801,-1.0807,-1.0807,-1.0808,-1.0819,-1.0804,-1.0781,-1.0779,-1.0809,-1.081,-1.081,0,-1.0654,-1.0669,-1.0673,-1.0679,-1.07,-1.0701,-1.071,-1.0723,-1.0729,-1.0738,-1.0742,-1.0752,-1.0757,-1.0765,-1.0779,-1.0785,-1.0784,-1.0795,-1.079,-1.079,-1.0789,-1.0789,-1.0766,-1.0792,-1.0792,-1.0792,-1.0792,0,-1.0637,-1.0638,-1.0662,-1.0665,-1.0667,-1.0685,-1.0686,-1.0697,-1.0709,-1.0713,-1.0729,-1.0733,-1.0752,-1.0758,-1.077,-1.0774,-1.0776,-1.0782,-1.0785,-1.078,-1.078,-1.0783,-1.0784,-1.0791,-1.0792,-1.0792,-1.0792,0,-1.061,-1.0626,-1.0632,-1.0652,-1.0657,-1.0658,-1.0675,-1.0677,-1.0689,-1.0695,-1.0697,-1.0716,-1.0724,-1.0739,-1.0751,-1.0759,-1.076,-1.0766,-1.0756,-1.0758,-1.0752,-1.0753,-1.0731,-1.073,-1.0756,-1.0756,-1.0756,0,-1.0597,-1.0599,-1.062,-1.0624,-1.0633,-1.064,-1.0646,-1.0664,-1.067,-1.0685,-1.0686,-1.0696,-1.0704,-1.0716,-1.0731,-1.074,-1.0746,-1.0738,-1.0747,-1.0743,-1.0746,-1.0745,-1.0746,-1.0735,-1.0735,-1.0735,-1.0734,0,-1.0573,-1.0582,-1.0591,-1.0602,-1.061,-1.0619,-1.063,-1.0633,-1.0653,-1.0659,-1.0668,-1.0675,-1.0688,-1.0697,-1.0709,-1.0718,-1.0729,-1.0732,-1.0731,-1.0726,-1.0721,-1.0724,-1.075,-1.0732,-1.0732,-1.0732,-1.0732,-1.0732,-1.0554,-1.0556,-1.0571,-1.0581,-1.0591,-1.0601,-1.0605,-1.0618,-1.0626,-1.0638,-1.0648,-1.0657,-1.067,-1.0687,-1.0696,-1.0702,-1.0708,-1.0707,-1.0706,-1.0706,-1.0704,-1.072,-1.0704,-1.0704,-1.0704,-1.0705,-1.0705,0,-1.0531,-1.0542,-1.055,-1.0565,-1.0573,-1.0584,-1.0597,-1.0602,-1.0609,-1.0621,-1.063,-1.064,-1.065,-1.0665,-1.0676,-1.0678,-1.0684,-1.068,-1.068,-1.0682,-1.0699,-1.0698,-1.0676,-1.0676,-1.0676,-1.0676,-1.0676,-1.0676,-1.052,-1.0525,-1.0535,-1.0545,-1.0556,-1.0565,-1.0572,-1.0581,-1.0591,-1.0602,-1.061,-1.0621,-1.0634,-1.0646,-1.0655,-1.0659,-1.0662,-1.0657,-1.0663,-1.0678,-1.0681,-1.0683,-1.0683,-1.0658,-1.0658,-1.0646,-1.0646,-1.0646]},{"header":{"parameterUnit":"m.s-1","parameterCategory":1,"la1":30.2991,"la2":30.254,"lo1":-89.0895,"lo2":-89.0444,"dy":0.0017,"dx":0.0017,"nx":28,"ny":28,"refTime":"2025-11-14T03:00:00:Z","depth":0,"parameterNumber":3,"parameterNumberName":"V-component_of_WINDS"},"data":[0,0,0,0,0,0,0,0,0,0,0,0,0,0,0,0,0,0,0,0,0,0,0,0,0,0,0,0,0,0,0,0,0,0,0,0,0,0,0,0,0,0,0,0,0,0,0,0,0,0,0,0,0,0,0,0,0,0,-0.5016,-0.5016,0,-0.5027,-0.5027,-0.5027,-0.5018,-0.5018,-0.5017,-0.5017,-0.5028,-0.5029,-0.503,0,0,0,0,0,0,0,0,0,0,0,0,0,-0.4989,-0.499,-0.5016,-0.5016,-0.5017,-0.5027,-0.5027,-0.5027,-0.5018,-0.5018,-0.5017,-0.5017,-0.5028,-0.5029,-0.503,0,0,0,0,0,0,0,0,0,0,0,0,0,-0.5,-0.499,-0.5016,-0.5013,-0.5013,-0.5027,-0.5027,-0.5027,-0.5018,-0.5018,-0.5017,-0.5017,-0.5028,-0.5029,-0.503,-0.5047,0,0,-0.5033,-0.5033,0,0,0,0,0,0,0,0,-0.5,-0.5001,-0.5014,-0.5014,-0.5013,-0.5021,-0.5022,-0.5034,-0.5019,-0.5016,-0.5017,-0.5016,-0.5026,-0.5027,-0.5031,-0.5047,-0.5048,-0.5033,-0.5033,-0.5034,-0.5034,0,0,0,0,0,0,0,-0.4999,-0.5001,-0.5021,-0.5014,-0.5014,-0.5012,-0.5013,-0.5024,-0.5024,-0.5017,-0.5016,-0.5017,-0.5026,-0.503,-0.5031,-0.5048,-0.5033,-0.5034,-0.5034,-0.5035,-0.5082,-0.5082,0,0,0,0,0,0,-0.4998,-0.5,-0.502,-0.5021,-0.5005,-0.5013,-0.5014,-0.5019,-0.5024,-0.5024,-0.5018,-0.5017,-0.5028,-0.503,-0.5031,-0.5053,-0.5034,-0.5035,-0.5035,-0.5081,-0.5082,-0.5082,0,0,0,0,0,0,-0.4998,-0.5,-0.502,-0.501,-0.5013,-0.5014,-0.502,-0.5019,-0.5023,-0.5025,-0.5025,-0.5021,-0.5028,-0.503,-0.5043,-0.5053,-0.5035,-0.5036,-0.508,-0.5081,-0.5082,-0.5097,0,0,0,0,0,0,-0.4997,-0.5,-0.5006,-0.5011,-0.5013,-0.5032,-0.502,-0.502,-0.5025,-0.5024,-0.5028,-0.5029,-0.5028,-0.5042,-0.5044,-0.5054,-0.5037,-0.5079,-0.5081,-0.5082,-0.5095,-0.5098,-0.51,0,0,0,0,0,-0.4996,-0.501,-0.5007,-0.5009,-0.5021,-0.5032,-0.5034,-0.5032,-0.5025,-0.5032,-0.5034,-0.5029,-0.5052,-0.5044,-0.5046,-0.5057,-0.5079,-0.508,-0.5082,-0.5094,-0.5098,-0.51,0,0,0,0,0,0,-0.5007,-0.501,-0.5007,-0.5022,-0.5027,-0.5031,-0.5039,-0.5036,-0.5042,-0.5041,-0.5039,-0.504,-0.5055,-0.5057,-0.5048,-0.5074,-0.5064,-0.5066,-0.5073,-0.5076,-0.5078,-0.5078,-0.5038,0,0,0,0,0,-0.5011,-0.5019,-0.5022,-0.5035,-0.5038,-0.5038,-0.5043,-0.5041,-0.5046,-0.5048,-0.5051,-0.5056,-0.5064,-0.507,-0.5078,-0.5095,-0.5097,-0.5104,-0.5106,-0.5108,-0.5111,-0.5122,-0.5125,-0.5087,-0.5087,-0.5087,0,0,-0.5019,-0.5022,-0.5028,-0.5038,-0.5041,-0.5051,-0.504,-0.505,-0.5057,-0.505,-0.5063,-0.5065,-0.5071,-0.5087,-0.5094,-0.5089,-0.5121,-0.511,-0.5112,-0.5113,-0.5124,-0.5127,-0.513,-0.5088,-0.5088,-0.5088,0,0,-0.504,-0.5043,-0.5055,-0.5059,-0.5064,-0.5065,-0.5068,-0.5072,-0.5073,-0.5087,-0.5082,-0.509,-0.5104,-0.5109,-0.5113,-0.5137,-0.5133,-0.5139,-0.5153,-0.5164,-0.5167,-0.517,-0.518,-0.5184,-0.5141,-0.5141,-0.5141,0,-0.505,-0.5064,-0.5062,-0.5073,-0.5078,-0.5071,-0.5084,-0.5088,-0.5096,-0.51,-0.5094,-0.5113,-0.5116,-0.5134,-0.514,-0.5142,-0.5147,-0.514,-0.5167,-0.517,-0.5172,-0.5182,-0.5185,-0.5142,-0.5142,-0.5142,-0.5142,0,-0.5077,-0.5087,-0.5096,-0.5105,-0.5111,-0.5122,-0.5122,-0.5128,-0.5126,-0.5127,-0.5142,-0.5145,-0.5155,-0.5158,-0.5156,-0.5177,-0.5174,-0.5167,-0.5157,-0.5177,-0.5186,-0.5189,-0.5144,-0.5143,-0.5143,-0.5143,0,0,-0.5106,-0.5113,-0.5117,-0.5121,-0.5127,-0.5135,-0.5147,-0.5156,-0.5162,-0.5167,-0.5178,-0.5191,-0.5186,-0.519,-0.5188,-0.5198,-0.5219,-0.5191,-0.5191,-0.5197,-0.5244,-0.525,-0.5254,-0.5215,-0.5216,-0.5217,-0.5244,0,-0.5128,-0.5149,-0.5148,-0.5168,-0.5178,-0.5172,-0.5182,-0.5188,-0.5189,-0.5198,-0.5199,-0.5209,-0.52,-0.5203,-0.5212,-0.5214,-0.5228,-0.5212,-0.5227,-0.5227,-0.5228,-0.5259,-0.5265,-0.529,-0.5247,-0.5248,-0.5248,0,-0.5158,-0.5165,-0.5186,-0.5192,-0.5196,-0.5206,-0.5215,-0.5223,-0.5229,-0.523,-0.5236,-0.5232,-0.5245,-0.5234,-0.5252,-0.5241,-0.5247,-0.5249,-0.525,-0.5253,-0.524,-0.5264,-0.5298,-0.5303,-0.5253,-0.5253,-0.5253,0,-0.5179,-0.5194,-0.5209,-0.5213,-0.5219,-0.5226,-0.523,-0.5235,-0.5241,-0.5249,-0.5253,-0.5262,-0.5267,-0.5275,-0.5274,-0.5266,-0.5294,-0.5282,-0.5296,-0.5296,-0.5303,-0.5303,-0.5341,-0.5304,-0.5303,-0.5303,-0.5303,0,-0.5205,-0.5219,-0.5219,-0.5228,-0.5244,-0.5242,-0.5257,-0.526,-0.5265,-0.5275,-0.527,-0.528,-0.5278,-0.5288,-0.5287,-0.5304,-0.5306,-0.5307,-0.5308,-0.5309,-0.5309,-0.5314,-0.5313,-0.5304,-0.5304,-0.5304,-0.5304,0,-0.5232,-0.5232,-0.5249,-0.5254,-0.5255,-0.5267,-0.5272,-0.5281,-0.5282,-0.5295,-0.5298,-0.53,-0.5312,-0.5312,-0.5324,-0.5324,-0.5345,-0.5342,-0.5344,-0.5344,-0.5359,-0.5358,-0.5402,-0.5409,-0.5366,-0.5366,-0.5366,0,-0.525,-0.526,-0.5267,-0.5274,-0.5278,-0.5288,-0.5295,-0.5293,-0.53,-0.5308,-0.5317,-0.5328,-0.5338,-0.5357,-0.5359,-0.537,-0.5368,-0.5383,-0.537,-0.5372,-0.5371,-0.5371,-0.5373,-0.5386,-0.5387,-0.5387,-0.5387,0,-0.5282,-0.5282,-0.5291,-0.5302,-0.531,-0.5317,-0.5324,-0.533,-0.5329,-0.5338,-0.535,-0.5357,-0.5371,-0.5383,-0.5393,-0.5397,-0.5393,-0.5391,-0.5396,-0.5398,-0.54,-0.5401,-0.5353,-0.5391,-0.539,-0.539,-0.539,-0.539,-0.5306,-0.5316,-0.5323,-0.5334,-0.5339,-0.5346,-0.5356,-0.5359,-0.5369,-0.538,-0.5378,-0.5393,-0.5399,-0.5413,-0.5417,-0.5429,-0.5424,-0.5429,-0.5431,-0.5433,-0.5436,-0.5396,-0.543,-0.543,-0.543,-0.543,-0.543,0,-0.534,-0.5344,-0.5354,-0.5365,-0.5374,-0.5369,-0.5377,-0.5385,-0.5398,-0.5404,-0.5414,-0.5429,-0.544,-0.5444,-0.5456,-0.5464,-0.5463,-0.5468,-0.5468,-0.5469,-0.5438,-0.5435,-0.5469,-0.5469,-0.5469,-0.5469,-0.5469,-0.5469,-0.5359,-0.5376,-0.5377,-0.5397,-0.5401,-0.5415,-0.5421,-0.5427,-0.5433,-0.545,-0.546,-0.5462,-0.5468,-0.548,-0.5491,-0.5492,-0.5497,-0.5503,-0.5504,-0.5475,-0.5471,-0.5468,-0.5464,-0.5504,-0.5504,-0.5534,-0.5534,-0.5534]}]]